Preview of NWS' New Version of Forecast
This preview is not operational and should not be used for support decisions.

Regional Weather Roundup (RWR)

Issued by National Weather Service (NWS)

                            
000
ASUS43 KBIS 181410
RWRND 

NORTH DAKOTA REGIONAL WEATHER ROUNDUP
NATIONAL WEATHER SERVICE BISMARCK ND
900 AM CDT TUE JUN 18 2019

NOTE: "FAIR" INDICATES FEW OR NO CLOUDS BELOW 12,000 FEET WITH NO
SIGNIFICANT WEATHER AND/OR OBSTRUCTIONS TO VISIBILITY.


NDZ001>003-009>011-017-181500-
NORTHWEST NORTH DAKOTA
  
CITY           SKY/WX    TMP DP  RH WIND       PRES   REMARKS
WILLISTON      MOSUNNY   60  50  69 VRB3      30.04S                  
MINOT          CLOUDY    59  49  69 SW5       30.05F                  
MINOT AFB      MOSUNNY   59  51  76 CALM      30.05R                  
$$
 
NDZ018>021-031>035-040>046-181500-
SOUTHWEST NORTH DAKOTA
  
CITY           SKY/WX    TMP DP  RH WIND       PRES   REMARKS
BISMARCK       CLOUDY    60  51  72 SE5       30.08R                  
DICKINSON      CLOUDY    57  50  77 E10       30.03R                  
GARRISON         N/A     58  52  80 SE5       30.05S                  
HETTINGER ARPT MOSUNNY   60  51  72 E8        30.04S                  
$$
 
NDZ004>008-012>016-024-026-027-054-181500-
NORTHEAST NORTH DAKOTA
  
CITY           SKY/WX    TMP DP  RH WIND       PRES   REMARKS
GRAND FORKS    MOSUNNY   61  55  81 NW5       30.04R                  
GRND FRKS AFB  MOSUNNY   61  55  82 N5        30.06R                  
DEVILS LAKE    MOSUNNY   60  52  74 NE8       30.05F                  
$$
 
NDZ022-023-025-028>030-036>039-047>053-181500-
SOUTHEAST NORTH DAKOTA
  
CITY           SKY/WX    TMP DP  RH WIND       PRES   REMARKS
FARGO          MOSUNNY   62  55  77 N7        30.02S                  
JAMESTOWN      SUNNY     63  55  75 N7        30.04S                  
$$